Location: Heiligenberg
(48.5381°N, 7.3897°E)
Time: 19:52:18
(UTC+00:00)

BREEZE-M DEB (TANK) - Pass Details

Date: 26 May 2022
Orbit: 321 x 13840 km, 49.6° (Epoch: 01 July)

Event Time Altitude Azimuth Distance (km) Brightness Sun altitude
Rises 00:48:01 0° 247° (WSW) 10,479 8.9 -18.1°
Reaches altitude 10° 00:58:18 10° 248° (WSW) 7,143 8.0 -17.5°
Maximum altitude 01:14:18 84° 165° (SSE) 1,175 4.3 -16.4°
Drops below altitude 10° 01:18:32 10° 77° (ENE) 2,061 6.3 -16.1°
Sets 01:19:55 0° 76° (ENE) 2,672 7.0 -16.0°
